Tracking 27126 objects as of 30-Mar-2023
HD Live streaming from Space Station
objects crossing your sky now

SL-8 DEB

Track SL-8 DEB now!
10-day predictions


NORAD ID: 10526
Int'l Code: 1977-116D
Perigee: 955.8 km
Apogee: 999.0 km
Inclination: 65.8 °
Period: 104.5 minutes
Semi major axis: 7348 km
RCS: 0.1839 m2 (medium)
Launch date: December 13, 1977
Source: Commonwealth of Independent States (former USSR) (CIS)
Launch site: PLESETSK MISSILE AND SPACE COMPLEX (PKMTR)

Note: This is SATELLITE DEBRIS
Your satellite tracking list
Your tracking list is empty




NASA's NSSDC Master Catalog

Two Line Element Set (TLE):
1 10526U 77116D   23088.81693287  .00000319  00000-0  39571-3 0  9992
2 10526  65.8318 102.0552 0029428 188.2262 344.9704 13.78200925274681
Source of the keplerian elements: AFSPC